Wind_Speed
18 20 21 21 21 21 22 22 20 18 18 19 18 18 18 17 17 17 17 17 17 17 17 17 17 17 18 18 18 18 17 16 16 16 16 15 14 13 12 12 12 13 13 13 13 12 11 11 11 10 10 11 11 12 13 14 14 15 15 16 16 17
19 20 21 21 21 21 21 21 19 17 17 17 17 17 18 18 18 18 19 18 18 18 18 18 18 18 18 19 19 19 18 17 17 18 18 17 16 15 13 13 13 13 14 14 14 13 12 12 12 11 12 12 12 13 14 15 15 15 15 15 17 18
20 21 22 21 20 20 20 20 18 16 16 17 17 17 18 19 20 20 20 20 20 20 19 19 18 17 18 18 19 19 19 19 19 19 19 18 18 17 16 15 14 14 15 14 14 13 12 12 12 12 13 13 14 15 15 16 17 16 16 16 17 18
21 22 22 21 20 20 20 19 17 16 16 17 17 18 19 20 21 22 22 22 22 21 20 19 18 17 18 18 19 20 20 19 19 19 19 19 19 18 18 17 16 17 16 15 15 13 12 12 12 13 13 14 15 15 15 16 17 17 17 18 18 19
21 22 23 21 20 20 20 18 17 17 17 17 17 18 20 21 23 24 24 24 23 22 20 19 18 18 18 18 19 19 20 19 18 19 19 18 18 18 18 17 17 16 15 16 16 14 13 12 13 14 15 16 15 14 16 17 17 17 18 19 20 21
21 23 24 23 21 20 19 19 18 18 18 19 19 20 21 23 24 25 25 25 24 23 21 19 18 18 19 19 19 19 19 18 18 19 19 18 17 16 17 17 15 14 13 14 15 14 13 13 13 15 16 17 15 14 15 17 17 18 19 20 21 22
22 23 24 24 22 20 20 19 18 18 19 20 21 22 22 23 25 26 26 26 25 24 22 20 19 20 20 20 21 21 19 17 18 19 18 17 16 15 16 17 16 15 15 14 14 14 14 13 13 14 15 17 17 16 16 17 18 19 20 20 22 23
22 24 24 25 24 21 20 20 20 20 21 21 22 23 23 24 25 26 27 26 26 25 23 21 20 21 21 21 22 22 20 19 19 18 17 18 18 16 16 17 17 16 15 15 15 15 14 14 13 14 15 17 19 19 17 17 18 19 21 22 23 24
23 24 24 25 24 22 22 21 21 22 22 23 23 24 24 25 26 27 27 27 26 25 23 21 20 22 22 22 21 21 21 21 20 18 16 17 17 16 16 17 17 16 15 16 15 14 14 15 15 16 16 17 18 18 17 17 17 18 21 23 24 24
24 25 25 25 25 23 23 22 22 23 24 24 24 25 25 26 27 27 27 26 27 25 23 21 21 21 22 21 20 20 21 21 19 17 15 15 14 16 17 16 16 16 17 17 16 15 15 17 18 17 17 17 17 17 17 17 17 18 21 24 25 25
24 26 26 26 26 25 24 23 23 23 24 24 24 25 26 27 27 27 27 27 27 25 23 23 21 22 23 22 21 23 23 20 20 20 19 19 18 17 16 15 16 17 18 18 19 19 18 19 19 18 17 17 17 17 17 18 19 20 20 22 24 26
25 26 27 26 26 25 25 25 24 24 24 25 25 26 27 28 28 28 28 27 26 25 24 24 23 23 24 24 24 24 22 19 21 23 21 21 19 15 12 13 17 18 20 20 20 21 20 19 19 18 17 17 17 16 18 20 21 23 22 21 22 24
25 27 27 27 27 26 26 26 25 25 25 26 26 27 28 29 30 30 29 28 27 25 25 24 23 24 24 25 26 24 21 20 23 24 21 18 15 11 13 18 20 21 22 22 22 21 20 19 18 18 17 16 16 17 19 21 23 25 25 24 22 22
26 27 28 27 27 27 27 27 27 26 26 27 28 28 30 30 31 31 30 29 27 26 25 24 23 24 24 25 27 24 22 23 24 23 20 17 14 15 20 22 22 22 23 23 23 22 20 19 18 18 17 16 17 18 20 22 23 25 26 26 24 23
27 28 28 27 28 27 28 29 28 28 27 28 29 30 31 31 32 32 32 30 28 27 25 24 24 24 24 25 26 24 23 25 25 22 19 18 19 21 22 22 21 22 23 24 23 22 21 19 17 16 16 17 18 20 21 22 23 24 25 27 26 26
28 28 28 27 28 28 29 29 28 28 28 29 30 31 32 33 34 34 33 31 29 27 25 25 24 24 26 25 24 24 24 24 21 20 19 21 23 22 21 21 21 22 22 23 22 22 21 19 16 15 17 19 20 21 22 22 23 23 24 26 27 28
30 28 27 28 29 30 29 29 29 29 29 29 31 32 32 33 35 35 33 30 28 26 26 26 24 24 26 24 22 24 23 19 18 19 21 23 23 21 20 21 22 22 23 23 21 20 20 17 16 16 18 19 20 20 21 22 23 24 24 25 26 28
30 28 28 29 30 30 29 29 29 29 29 30 31 32 33 34 35 34 31 28 26 26 26 26 24 23 24 23 23 24 22 20 21 21 21 21 20 19 20 21 22 23 23 22 18 16 17 16 16 17 18 18 19 20 21 22 23 24 24 25 27 29
29 28 29 30 30 29 29 29 30 30 30 30 32 33 34 35 33 30 27 26 25 25 25 26 25 24 23 23 24 23 21 21 22 21 20 19 19 19 20 21 23 23 21 17 12 11 13 13 14 16 17 18 18 20 21 22 23 24 25 27 29 31
29 29 30 30 29 28 29 29 30 30 30 32 33 34 34 32 29 26 25 25 25 24 25 26 26 25 24 24 23 22 21 21 20 19 19 19 19 19 20 21 20 18 15 11 8 9 11 11 12 15 17 18 19 20 21 22 23 25 26 28 30 32
29 28 29 29 27 27 28 29 30 30 31 33 33 33 31 29 27 25 25 25 26 24 25 26 26 25 25 25 24 23 23 23 20 19 20 19 19 18 18 17 14 11 11 10 9 10 11 12 13 16 18 18 19 20 22 23 24 26 28 30 31 32
29 28 28 28 27 27 27 28 29 30 31 32 31 30 29 27 26 25 24 25 25 25 24 25 25 24 25 26 25 25 25 23 21 20 19 18 17 17 14 12 11 11 11 11 10 11 13 14 14 16 18 19 21 22 23 24 26 27 29 31 32 32
30 30 28 28 27 26 27 28 29 30 31 30 28 28 27 26 25 25 24 24 25 25 25 25 24 24 25 26 26 26 24 22 20 18 16 15 15 13 12 11 11 12 12 12 11 12 14 15 16 17 19 21 22 23 24 26 27 29 30 31 32 32
31 29 27 27 28 27 28 29 30 30 29 27 27 27 26 25 25 24 25 25 25 26 26 26 25 24 25 26 27 25 23 21 19 16 14 14 13 12 12 11 12 13 13 14 14 14 15 17 18 19 20 21 22 22 24 27 28 30 31 32 32 32
30 29 28 28 29 29 29 29 29 28 27 26 26 26 24 24 25 24 24 25 25 26 26 26 25 25 26 27 26 24 21 18 16 14 13 14 14 13 12 12 14 15 15 15 16 17 17 19 20 21 22 23 23 23 24 27 29 30 31 32 32 33
30 29 28 29 29 29 29 28 29 28 27 25 24 23 23 24 24 24 25 25 26 26 26 26 26 26 27 26 24 21 19 16 14 13 14 14 15 14 14 15 16 16 16 17 18 18 19 20 22 23 24 24 25 26 27 29 30 31 32 32 33 33
31 29 29 30 30 30 29 28 28 28 26 24 23 23 24 24 24 25 26 26 26 25 25 26 26 26 26 24 22 19 16 14 14 14 14 15 15 14 15 16 17 17 18 18 18 19 20 21 23 24 24 26 27 28 29 31 32 32 32 32 33 35
30 30 30 31 30 29 28 26 26 26 25 24 24 24 24 24 25 26 26 26 26 25 25 25 25 24 23 22 20 17 15 14 14 14 14 14 14 15 16 17 18 18 19 19 19 20 21 22 23 24 25 26 28 30 32 33 34 34 34 33 33 34
31 30 30 31 29 27 26 25 25 25 24 24 24 24 24 25 26 26 26 26 26 25 25 24 23 22 21 20 18 15 14 13 14 13 13 14 15 16 18 19 19 19 19 19 20 21 22 23 23 24 25 27 29 31 32 34 35 35 36 35 34 34
31 30 30 29 26 24 24 24 25 25 24 24 24 24 25 25 26 26 25 26 26 25 24 23 22 20 20 18 16 14 14 13 13 13 14 15 16 18 19 19 19 19 20 20 21 22 23 23 23 24 26 27 29 31 32 34 35 36 37 37 37 37
30 29 27 24 22 21 21 22 24 24 24 23 24 25 25 25 24 24 25 25 26 25 23 21 20 20 19 18 16 15 14 14 14 14 15 16 17 19 19 19 19 20 20 21 22 23 23 23 24 25 27 28 30 31 32 34 35 36 37 37 38 39
29 27 24 21 20 20 20 22 23 23 23 23 24 24 23 24 23 23 24 25 25 23 22 20 19 19 18 17 16 16 15 15 15 16 17 18 18 19 19 20 20 21 22 23 23 23 23 23 25 26 27 29 30 32 33 34 36 37 38 38 39 39
27 25 23 20 20 20 20 22 23 22 22 22 23 23 23 23 23 23 23 24 24 22 20 19 18 19 18 17 17 16 16 16 17 17 18 18 19 19 20 20 21 22 23 24 23 23 23 24 26 27 29 30 31 33 34 35 37 38 38 39 39 39
25 23 22 21 21 21 21 22 21 21 21 22 23 23 23 23 23 23 23 23 23 21 19 18 18 19 19 18 17 16 16 17 17 18 18 19 19 20 21 21 22 23 23 24 23 23 24 25 27 29 30 31 32 34 35 37 38 39 39 39 39 40
24 22 21 21 21 21 21 21 20 21 22 23 24 24 23 23 23 23 22 22 22 20 18 18 19 20 19 18 17 17 17 18 18 18 19 19 20 21 22 22 23 24 24 23 23 23 25 27 29 30 31 32 34 36 37 38 40 40 40 40 40 40
24 23 22 22 21 21 21 20 20 21 23 23 24 24 23 22 22 22 22 22 22 20 19 19 19 19 19 17 17 17 18 18 18 19 20 20 21 22 23 23 24 24 23 23 23 25 26 28 30 31 32 34 36 37 38 39 41 41 40 40 40 41
25 24 23 22 21 21 20 20 20 21 23 23 24 24 23 22 22 22 22 22 21 20 20 20 19 19 18 17 17 18 18 18 19 20 20 21 22 23 23 24 24 23 23 24 25 26 28 30 31 32 34 36 37 38 39 40 41 41 41 41 41 41
Wind_Direction
306 317 324 320 311 306 306 309 313 314 313 316 320 322 327 331 332 328 323 319 315 312 308 305 303 301 299 297 294 292 293 294 297 299 302 304 307 310 311 309 306 302 298 294 289 286 284 283 280 276 275 275 280 286 288 292 297 300 303 308 314 319
305 316 324 320 312 306 305 307 312 313 313 316 318 320 324 327 328 326 322 319 316 313 310 308 306 305 303 299 296 295 295 295 295 297 297 299 301 305 307 305 305 304 300 294 288 284 284 284 282 280 279 282 287 291 294 297 301 304 309 315 318 321
304 313 320 318 311 305 303 306 311 314 314 316 317 318 320 322 322 322 319 317 316 313 310 308 308 307 305 301 299 298 298 298 296 294 293 295 297 300 303 302 305 305 301 295 290 288 287 285 283 283 281 283 287 292 297 300 302 308 316 320 320 321
301 308 316 316 309 303 301 305 310 313 313 314 315 316 316 317 317 316 316 316 316 314 311 309 308 308 306 303 302 299 299 298 297 294 290 291 293 296 298 300 301 298 295 292 289 287 284 282 283 283 281 281 285 292 298 301 306 314 319 321 322 323
298 305 312 311 306 301 299 304 308 308 308 309 310 313 313 313 312 312 313 315 316 315 312 310 309 307 306 304 300 299 298 296 297 294 290 289 286 288 292 294 297 293 287 285 282 281 279 276 278 280 282 286 290 295 299 304 312 318 318 320 323 325
297 304 308 307 303 299 298 300 303 303 302 303 306 308 309 309 309 309 311 313 315 315 313 309 308 307 305 303 300 299 297 293 294 291 288 288 284 283 285 287 295 298 294 289 283 280 279 275 275 277 282 289 295 301 304 309 315 316 316 319 322 323
296 303 305 303 300 297 297 296 296 296 296 298 302 304 305 307 307 308 310 312 315 315 312 308 309 310 308 307 305 301 296 291 292 287 285 286 283 282 282 284 290 295 297 294 288 286 284 278 276 279 281 284 291 302 310 312 315 316 316 319 321 322
295 302 302 298 297 297 295 293 293 291 292 294 297 300 302 305 306 307 309 311 314 313 311 310 312 314 312 311 311 307 300 295 292 286 286 287 283 281 282 285 287 289 291 290 290 291 288 283 281 283 284 285 290 299 308 311 315 317 317 320 321 320
294 299 298 295 295 295 294 292 292 289 289 291 294 298 301 303 304 305 308 310 312 311 310 310 313 314 312 310 313 310 301 296 293 285 287 291 286 285 285 284 283 284 286 289 293 293 290 289 287 287 290 293 297 302 307 311 314 317 317 319 319 318
294 297 295 293 292 293 293 291 291 289 289 291 294 297 299 301 302 304 306 309 311 310 309 307 310 313 310 308 309 306 300 297 296 291 292 293 289 289 288 285 285 286 287 290 295 294 292 291 289 291 294 297 300 304 308 310 313 316 317 317 316 316
292 294 292 291 291 290 290 291 291 290 290 291 293 295 297 299 301 304 306 310 311 309 307 307 311 312 309 307 307 308 306 302 301 303 300 294 291 289 284 286 291 290 291 292 292 293 292 288 287 291 295 298 300 302 305 307 309 312 314 314 314 316
290 290 290 289 289 289 289 290 291 291 291 292 293 295 297 300 302 305 308 310 310 308 308 309 312 312 309 307 308 312 311 307 307 309 306 296 292 287 283 294 299 294 293 291 289 290 289 286 286 289 291 295 300 305 307 308 309 309 310 311 313 315
289 287 288 288 287 288 289 288 289 289 291 292 294 296 297 300 302 304 308 309 308 307 307 308 309 309 308 306 308 310 307 304 305 308 306 295 290 291 296 304 304 299 296 293 289 287 284 284 284 286 288 293 300 305 307 308 309 309 310 312 314 315
288 287 286 286 286 287 287 286 286 287 290 292 294 295 297 299 301 304 306 306 306 306 305 305 305 305 304 303 304 305 302 302 304 305 300 292 295 300 300 302 302 300 299 294 289 284 280 280 280 283 289 295 300 301 302 305 308 310 312 314 315 315
286 285 284 284 285 284 284 284 284 286 288 291 293 294 297 299 300 303 304 303 305 305 304 302 302 302 301 300 300 301 302 303 303 300 291 288 298 302 300 302 303 302 301 297 291 283 278 277 278 284 291 295 296 296 299 304 307 310 313 315 316 315
284 283 283 283 282 281 282 283 284 285 287 290 292 294 296 298 300 301 302 303 304 305 302 299 301 302 300 298 296 299 302 301 298 292 288 291 297 301 303 304 303 301 301 300 293 282 277 277 279 285 288 290 291 295 300 305 309 311 312 313 313 314
282 282 282 280 279 280 282 284 285 286 289 290 291 294 296 298 299 300 301 302 302 302 299 297 299 302 300 297 298 302 303 299 295 291 291 293 296 301 304 303 301 299 298 297 293 283 278 278 280 282 283 287 293 300 305 309 310 309 309 309 311 313
281 282 281 278 278 281 283 286 287 288 289 290 291 293 296 297 298 298 300 300 300 299 297 296 298 300 298 297 301 305 302 298 296 294 292 292 296 301 301 299 297 296 296 297 294 283 277 278 279 281 285 292 299 304 307 308 307 306 308 310 312 314
280 281 278 277 278 282 285 286 286 288 289 290 291 294 296 296 296 297 298 298 298 298 296 295 295 295 294 294 298 301 299 296 294 293 292 292 296 297 295 295 295 296 295 294 289 276 274 277 281 286 292 297 301 303 304 305 305 307 310 313 315 315
279 279 277 277 280 283 284 285 286 288 289 290 292 294 295 294 294 295 295 295 296 296 294 293 294 295 296 298 299 300 300 298 294 292 293 294 296 296 296 296 296 295 290 284 279 273 276 282 289 292 294 297 300 303 305 306 309 312 314 315 315 316
277 277 277 278 279 280 281 283 285 288 290 290 292 293 292 292 292 292 293 294 293 293 292 291 292 294 298 302 301 300 301 301 298 297 298 298 299 301 300 297 291 283 279 283 285 285 286 289 291 291 293 298 302 306 308 310 313 315 315 315 315 315
273 271 271 272 273 275 279 282 285 287 288 289 290 290 289 290 290 289 290 291 290 290 289 287 287 291 296 299 298 296 298 300 298 298 299 300 302 302 299 290 279 275 280 286 288 288 289 291 294 296 301 307 309 312 311 312 314 315 315 316 315 315
267 264 265 269 272 275 278 281 283 284 285 286 286 285 287 289 288 289 291 291 291 290 288 285 286 291 295 296 295 294 295 296 295 295 296 300 302 297 288 278 274 278 284 289 289 288 291 297 303 306 310 312 313 314 313 313 315 316 316 316 315 315
263 264 266 270 273 274 276 279 280 281 282 283 283 284 286 289 289 291 293 294 294 291 289 287 287 291 294 293 293 294 292 291 290 288 289 295 296 289 283 278 279 285 292 296 297 298 301 305 308 308 308 309 310 312 313 314 316 316 316 315 314 314
260 262 265 268 270 273 276 278 278 278 279 281 283 283 285 288 290 292 294 296 295 291 289 288 289 291 290 288 289 290 288 285 284 283 286 290 290 288 287 285 287 292 297 299 300 302 305 308 308 307 307 308 309 311 313 314 315 315 314 313 313 312
257 259 263 267 270 274 277 276 276 276 278 281 282 281 283 287 290 293 294 294 292 290 287 288 289 288 286 285 285 284 281 279 278 281 285 287 287 288 288 287 290 294 297 298 299 302 305 307 307 308 308 309 311 313 314 314 314 314 314 314 313 313
257 260 263 266 270 272 274 272 272 274 276 278 278 279 282 285 288 292 293 292 291 288 287 287 285 283 283 282 280 277 274 272 275 278 280 282 284 284 284 286 291 294 294 296 299 303 305 306 307 308 309 310 312 313 314 315 315 314 315 315 315 315
256 260 263 266 268 269 268 268 270 272 273 274 276 278 280 282 287 291 292 291 289 287 286 284 282 281 280 279 277 273 268 270 274 274 274 278 280 281 283 287 291 292 293 296 300 303 304 305 306 307 309 310 312 314 315 315 315 315 315 315 316 318
256 260 263 266 267 265 263 265 270 273 273 274 277 279 280 282 287 290 290 288 285 285 284 283 282 280 278 276 274 268 266 272 273 271 274 276 278 281 284 287 289 291 294 298 301 303 304 304 305 306 308 310 312 314 314 315 315 315 314 314 316 319
254 258 261 263 263 261 260 264 269 271 272 276 279 280 281 284 286 286 286 284 283 283 282 281 281 278 275 272 269 267 271 276 275 274 277 277 279 281 283 286 288 292 296 299 301 302 302 302 303 305 307 310 312 313 314 315 315 315 315 316 318 320
254 258 259 258 257 258 262 265 267 269 273 278 280 280 282 283 283 283 282 283 282 281 279 278 276 273 270 268 267 271 277 278 276 277 277 278 280 281 283 287 291 295 297 299 300 299 299 301 303 304 306 309 311 312 313 314 315 315 316 317 318 320
256 259 258 253 254 258 263 266 267 271 277 281 281 281 283 283 283 281 281 283 283 280 275 272 270 267 266 266 269 273 276 276 275 275 277 278 280 283 286 291 293 296 297 297 297 297 299 301 301 303 305 308 310 312 313 314 315 316 315 316 317 318
257 258 255 250 252 257 262 265 268 274 280 282 281 281 282 283 283 281 282 285 283 278 272 267 265 263 264 267 270 271 272 273 274 276 278 280 283 287 290 292 294 295 295 295 295 297 299 300 300 302 305 307 310 312 313 314 316 315 314 314 315 316
255 255 253 250 252 256 261 267 272 279 283 283 281 281 281 282 282 280 282 286 282 275 268 263 262 262 264 267 268 269 270 271 274 277 280 282 285 288 290 292 293 294 294 293 295 297 298 299 300 301 304 308 310 310 312 314 315 314 313 313 314 315
252 251 250 250 253 258 263 270 277 282 284 284 283 281 280 281 280 279 283 285 278 270 264 262 262 263 265 267 267 268 270 272 276 279 281 284 286 288 290 291 291 291 292 292 294 296 297 298 299 301 305 307 308 308 310 312 313 313 312 311 312 313
249 247 247 250 255 260 266 273 279 282 283 283 282 280 279 279 277 278 282 281 273 267 264 263 263 264 266 266 267 269 271 274 278 280 282 285 287 288 289 289 290 290 290 292 294 296 297 298 299 302 304 305 306 307 309 310 311 311 310 310 311 312
248 247 248 250 254 260 267 274 278 281 283 282 280 279 277 276 276 277 279 276 270 267 265 264 264 265 266 266 267 269 272 275 278 281 284 286 287 288 288 288 288 289 291 292 294 295 296 297 300 302 304 304 305 306 307 309 309 309 309 309 311 311
Height
5877 5876 5876 5875 5874 5873 5873 5872 5871 5871 5870 5870 5869 5868 5868 5868 5867 5867 5867 5866 5866 5865 5865 5864 5864 5863 5863 5862 5861 5860 5860 5860 5859 5859 5858 5858 5857 5856 5855 5855 5854 5854 5853 5853 5852 5852 5852 5852 5851 5850 5849 5849 5850 5849 5849 5849 5848 5848 5848 5847 5847 5846
5875 5875 5874 5874 5872 5872 5872 5871 5870 5870 5870 5869 5869 5868 5867 5867 5867 5866 5866 5865 5865 5864 5864 5863 5863 5862 5862 5861 5860 5860 5859 5859 5859 5858 5857 5857 5856 5855 5855 5854 5853 5853 5852 5852 5851 5851 5851 5851 5850 5849 5848 5849 5849 5848 5848 5847 5847 5848 5847 5846 5846 5846
5873 5873 5873 5872 5871 5871 5870 5870 5869 5869 5869 5868 5868 5867 5867 5866 5866 5865 5865 5864 5863 5863 5863 5862 5862 5862 5861 5860 5860 5859 5859 5858 5858 5857 5856 5856 5855 5855 5854 5853 5853 5852 5852 5851 5851 5851 5850 5850 5849 5848 5847 5848 5848 5847 5847 5846 5846 5846 5846 5845 5845 5845
5871 5871 5871 5871 5870 5870 5869 5869 5869 5869 5868 5868 5867 5867 5866 5865 5865 5864 5863 5863 5862 5862 5861 5861 5861 5860 5860 5860 5859 5858 5858 5858 5857 5856 5855 5855 5854 5854 5853 5853 5852 5851 5851 5850 5850 5850 5849 5849 5848 5847 5847 5847 5847 5846 5846 5845 5845 5844 5844 5844 5844 5843
5870 5869 5869 5870 5869 5869 5868 5868 5868 5868 5867 5867 5866 5866 5865 5864 5863 5863 5862 5861 5861 5860 5860 5860 5859 5859 5858 5858 5857 5857 5857 5857 5856 5855 5854 5854 5853 5853 5852 5852 5851 5850 5849 5849 5848 5848 5848 5848 5847 5846 5846 5846 5845 5845 5845 5844 5843 5843 5842 5842 5842 5842
5868 5868 5867 5868 5868 5868 5867 5867 5867 5866 5866 5866 5865 5865 5864 5863 5862 5861 5860 5859 5859 5859 5858 5858 5857 5857 5856 5856 5855 5855 5855 5855 5854 5853 5852 5852 5852 5852 5851 5850 5850 5849 5848 5847 5847 5847 5847 5847 5847 5846 5845 5846 5843 5843 5844 5843 5842 5842 5841 5841 5841 5840
5866 5866 5865 5865 5866 5866 5866 5866 5865 5865 5865 5865 5864 5863 5863 5862 5861 5860 5859 5858 5857 5857 5856 5856 5856 5855 5854 5854 5853 5853 5853 5853 5852 5851 5850 5850 5850 5850 5849 5848 5848 5848 5846 5846 5846 5846 5846 5846 5846 5845 5844 5844 5842 5841 5843 5843 5841 5840 5840 5840 5840 5839
5864 5864 5863 5863 5863 5864 5864 5864 5864 5864 5864 5863 5863 5862 5861 5860 5859 5858 5857 5856 5856 5855 5855 5855 5854 5854 5853 5853 5852 5850 5851 5851 5850 5849 5848 5848 5848 5847 5847 5847 5846 5846 5846 5846 5845 5845 5845 5844 5844 5844 5843 5843 5841 5841 5842 5842 5841 5839 5839 5839 5838 5838
5863 5863 5862 5861 5861 5862 5862 5862 5862 5862 5862 5862 5862 5861 5860 5859 5858 5857 5856 5855 5854 5853 5853 5854 5854 5853 5852 5851 5850 5850 5850 5850 5849 5847 5846 5847 5846 5845 5845 5845 5844 5844 5844 5844 5844 5844 5844 5843 5842 5842 5842 5841 5840 5840 5840 5841 5840 5839 5838 5837 5837 5836
5861 5861 5860 5859 5859 5860 5860 5860 5860 5860 5860 5860 5860 5859 5859 5858 5857 5856 5855 5854 5853 5852 5851 5852 5852 5852 5850 5850 5849 5848 5848 5847 5845 5844 5844 5844 5844 5843 5843 5844 5844 5843 5843 5842 5842 5843 5842 5842 5842 5841 5840 5840 5839 5839 5839 5839 5839 5838 5837 5836 5835 5834
5859 5858 5858 5858 5857 5858 5858 5858 5859 5858 5858 5858 5858 5858 5857 5857 5856 5855 5854 5853 5851 5850 5850 5850 5850 5850 5848 5847 5847 5846 5845 5844 5843 5842 5842 5841 5841 5841 5841 5842 5842 5842 5842 5842 5841 5841 5841 5841 5840 5840 5839 5839 5838 5838 5837 5837 5838 5838 5837 5836 5834 5833
5857 5856 5856 5856 5855 5856 5857 5857 5857 5857 5856 5856 5856 5856 5856 5855 5854 5853 5853 5852 5850 5850 5849 5848 5848 5847 5845 5844 5844 5844 5843 5843 5842 5842 5842 5841 5839 5838 5838 5838 5840 5841 5841 5840 5840 5840 5839 5839 5839 5839 5838 5838 5837 5837 5836 5835 5835 5835 5836 5836 5834 5832
5855 5854 5853 5854 5854 5854 5855 5855 5855 5854 5854 5854 5854 5854 5854 5854 5853 5852 5851 5850 5849 5849 5848 5848 5847 5846 5844 5842 5842 5842 5842 5842 5842 5841 5841 5841 5840 5839 5839 5837 5838 5839 5839 5839 5838 5838 5838 5838 5838 5838 5837 5837 5836 5836 5835 5834 5833 5832 5832 5833 5833 5832
5852 5852 5852 5852 5852 5852 5852 5852 5852 5852 5853 5852 5853 5853 5852 5852 5851 5850 5850 5848 5848 5847 5847 5848 5846 5845 5844 5842 5841 5841 5842 5842 5841 5840 5840 5840 5840 5841 5840 5838 5837 5837 5837 5837 5837 5837 5837 5836 5836 5836 5836 5836 5835 5835 5834 5833 5832 5831 5829 5829 5830 5829
5850 5850 5850 5850 5850 5850 5850 5850 5850 5850 5851 5851 5851 5851 5851 5850 5849 5848 5847 5846 5846 5846 5846 5846 5846 5844 5843 5842 5841 5841 5841 5840 5840 5840 5840 5840 5839 5840 5839 5837 5837 5836 5836 5836 5836 5835 5835 5835 5835 5835 5835 5834 5834 5833 5833 5832 5831 5830 5828 5827 5826 5826
5848 5848 5848 5848 5848 5848 5848 5848 5848 5849 5849 5849 5849 5849 5849 5848 5847 5846 5845 5844 5844 5844 5844 5844 5844 5843 5841 5841 5841 5840 5840 5840 5839 5839 5839 5839 5838 5838 5837 5836 5835 5835 5835 5834 5834 5834 5834 5834 5834 5834 5834 5833 5832 5832 5831 5831 5830 5829 5828 5826 5825 5823
5846 5846 5846 5846 5845 5845 5846 5846 5846 5847 5847 5848 5847 5847 5847 5846 5845 5844 5843 5843 5842 5842 5842 5842 5842 5841 5839 5839 5839 5839 5839 5839 5838 5838 5837 5837 5836 5836 5835 5834 5834 5834 5833 5833 5833 5833 5832 5833 5833 5832 5832 5831 5831 5830 5830 5829 5828 5827 5827 5826 5824 5822
5844 5844 5844 5843 5843 5844 5844 5844 5844 5845 5845 5846 5845 5845 5845 5844 5843 5842 5842 5841 5840 5839 5839 5839 5840 5840 5839 5837 5838 5837 5837 5837 5836 5836 5836 5835 5834 5834 5833 5833 5833 5832 5832 5832 5832 5832 5831 5831 5831 5830 5830 5830 5829 5829 5828 5827 5826 5826 5825 5824 5822 5821
5842 5842 5842 5841 5841 5842 5842 5842 5842 5843 5844 5844 5843 5843 5843 5842 5841 5841 5840 5839 5838 5837 5837 5836 5837 5838 5838 5837 5837 5837 5836 5836 5835 5834 5834 5833 5832 5832 5832 5831 5831 5831 5831 5830 5831 5831 5830 5830 5830 5829 5829 5828 5828 5827 5827 5826 5825 5824 5823 5821 5820 5818
5840 5840 5839 5839 5840 5840 5840 5840 5841 5841 5842 5842 5841 5841 5840 5840 5840 5839 5839 5837 5836 5836 5835 5834 5834 5834 5834 5834 5834 5834 5834 5833 5833 5832 5831 5830 5830 5830 5830 5830 5830 5829 5829 5829 5829 5829 5829 5829 5829 5828 5827 5827 5827 5826 5825 5824 5823 5822 5821 5819 5818 5816
5837 5837 5837 5837 5838 5838 5838 5838 5838 5839 5839 5839 5839 5839 5838 5838 5838 5837 5837 5836 5835 5835 5834 5832 5832 5831 5831 5831 5830 5830 5831 5830 5830 5829 5828 5828 5828 5828 5828 5828 5828 5828 5828 5828 5828 5828 5828 5828 5828 5827 5826 5826 5825 5824 5823 5822 5821 5820 5818 5817 5815 5814
5835 5835 5834 5834 5834 5835 5835 5836 5836 5836 5836 5836 5836 5836 5836 5836 5835 5835 5835 5835 5833 5833 5833 5832 5831 5831 5830 5829 5828 5828 5828 5828 5827 5826 5826 5826 5826 5826 5827 5827 5827 5827 5826 5827 5827 5826 5826 5826 5826 5825 5824 5824 5823 5822 5821 5820 5819 5818 5816 5815 5813 5811
5831 5831 5831 5831 5832 5833 5833 5834 5834 5833 5833 5834 5834 5833 5834 5834 5833 5833 5833 5833 5832 5832 5831 5831 5830 5830 5829 5828 5827 5827 5827 5826 5826 5825 5825 5825 5825 5825 5826 5826 5826 5825 5825 5825 5825 5825 5825 5824 5824 5823 5822 5822 5821 5820 5818 5817 5817 5815 5813 5812 5810 5809
5828 5828 5829 5829 5829 5830 5831 5831 5831 5831 5831 5831 5831 5831 5832 5831 5831 5831 5830 5830 5831 5830 5829 5829 5829 5829 5828 5827 5826 5826 5826 5825 5825 5824 5824 5824 5824 5825 5825 5824 5824 5824 5824 5823 5823 5823 5823 5822 5822 5821 5821 5820 5820 5819 5817 5815 5814 5813 5811 5809 5808 5806
5825 5825 5826 5826 5826 5827 5828 5828 5828 5828 5829 5829 5828 5829 5829 5829 5829 5829 5828 5828 5828 5828 5828 5827 5827 5827 5826 5825 5825 5825 5825 5824 5824 5823 5823 5823 5824 5823 5823 5823 5823 5823 5822 5821 5821 5821 5821 5820 5819 5819 5819 5818 5817 5817 5815 5814 5812 5810 5809 5807 5805 5803
5822 5823 5823 5823 5824 5824 5825 5825 5825 5826 5826 5826 5826 5827 5827 5827 5827 5827 5826 5826 5826 5826 5826 5826 5826 5825 5824 5824 5824 5824 5823 5823 5823 5822 5822 5822 5822 5822 5822 5822 5821 5821 5820 5820 5820 5819 5819 5818 5817 5816 5816 5815 5814 5813 5812 5811 5810 5808 5806 5804 5802 5800
5819 5820 5821 5820 5821 5822 5822 5822 5823 5823 5824 5824 5824 5825 5825 5825 5825 5824 5824 5823 5824 5824 5824 5824 5824 5823 5823 5822 5822 5822 5822 5822 5821 5821 5821 5821 5821 5821 5820 5820 5820 5819 5819 5818 5818 5817 5817 5816 5815 5814 5813 5812 5811 5810 5809 5807 5806 5805 5803 5801 5798 5796
5816 5816 5817 5817 5818 5819 5820 5820 5820 5821 5822 5822 5822 5823 5823 5823 5822 5822 5821 5821 5821 5822 5822 5822 5822 5821 5821 5820 5820 5820 5820 5820 5820 5820 5820 5819 5819 5819 5819 5819 5818 5818 5817 5817 5816 5815 5815 5814 5813 5812 5811 5810 5808 5807 5806 5804 5802 5801 5800 5798 5796 5793
5813 5813 5814 5814 5815 5816 5817 5818 5818 5818 5819 5819 5820 5820 5820 5820 5819 5819 5819 5819 5819 5820 5820 5820 5819 5819 5818 5818 5819 5819 5819 5819 5818 5818 5818 5818 5818 5818 5817 5817 5816 5816 5815 5814 5814 5813 5812 5811 5811 5809 5808 5807 5806 5804 5802 5801 5799 5797 5796 5795 5793 5791
5810 5811 5811 5812 5813 5813 5815 5816 5816 5815 5816 5817 5817 5817 5817 5817 5817 5817 5817 5817 5817 5818 5818 5818 5817 5816 5817 5817 5817 5817 5817 5817 5817 5816 5816 5816 5816 5816 5815 5815 5814 5814 5813 5812 5811 5811 5810 5809 5808 5807 5806 5805 5803 5801 5800 5798 5796 5794 5792 5790 5788 5787
5807 5808 5808 5809 5810 5811 5812 5813 5812 5812 5813 5814 5815 5814 5815 5815 5815 5815 5815 5815 5815 5816 5816 5815 5814 5814 5815 5815 5815 5815 5815 5815 5815 5814 5814 5814 5814 5814 5813 5813 5812 5811 5811 5810 5809 5808 5808 5807 5806 5805 5804 5802 5801 5799 5797 5795 5793 5791 5789 5786 5784 5782
5803 5804 5805 5806 5807 5808 5810 5809 5810 5810 5811 5812 5812 5812 5812 5812 5812 5812 5812 5813 5813 5813 5813 5813 5812 5812 5813 5813 5813 5813 5812 5813 5813 5813 5813 5812 5812 5812 5811 5811 5810 5809 5808 5808 5807 5806 5805 5805 5804 5803 5801 5800 5798 5797 5795 5793 5791 5788 5786 5784 5781 5778
5800 5801 5802 5804 5805 5806 5807 5807 5807 5808 5809 5809 5809 5810 5810 5810 5810 5810 5810 5810 5810 5811 5811 5810 5810 5810 5811 5811 5810 5811 5811 5811 5811 5811 5811 5810 5810 5809 5809 5808 5807 5807 5806 5805 5805 5804 5803 5802 5801 5800 5799 5797 5796 5794 5792 5790 5788 5786 5783 5781 5778 5775
5798 5799 5800 5801 5802 5803 5804 5804 5805 5806 5806 5807 5807 5808 5808 5808 5808 5807 5807 5808 5808 5809 5809 5808 5808 5808 5808 5808 5808 5808 5809 5809 5809 5808 5808 5808 5807 5807 5806 5806 5805 5804 5804 5803 5802 5801 5801 5800 5799 5798 5796 5795 5793 5791 5789 5787 5785 5783 5780 5777 5775 5772
5796 5797 5797 5798 5799 5800 5801 5802 5803 5803 5804 5804 5805 5805 5806 5805 5805 5805 5805 5806 5806 5807 5806 5806 5806 5806 5806 5806 5806 5806 5806 5806 5806 5806 5806 5805 5805 5804 5804 5803 5803 5802 5801 5800 5800 5799 5798 5797 5796 5795 5793 5792 5790 5788 5786 5784 5782 5779 5777 5774 5771 5768
5793 5794 5795 5795 5796 5797 5798 5799 5800 5801 5801 5802 5802 5803 5803 5803 5803 5803 5803 5804 5804 5805 5804 5804 5804 5803 5803 5804 5804 5804 5804 5804 5804 5803 5803 5803 5802 5802 5801 5801 5800 5799 5799 5798 5797 5796 5796 5795 5793 5792 5791 5789 5787 5785 5783 5781 5778 5776 5773 5771 5768 5765
5790 5791 5792 5793 5794 5795 5796 5797 5798 5799 5799 5799 5800 5800 5801 5801 5801 5801 5801 5802 5803 5803 5802 5802 5801 5801 5801 5801 5802 5802 5802 5801 5801 5801 5801 5800 5800 5799 5799 5798 5798 5797 5796 5795 5795 5794 5793 5792 5791 5789 5788 5786 5784 5782 5780 5777 5775 5772 5770 5767 5764 5761